Weather History for Palmdale, CA

Change the Weather History Date:

Monday, April 29, 2013

  Actual Average Record
Temperature  
Mean Temperature 74 °F 62 °F  
Max Temperature 92 °F 77 °F 95 °F (1981)
Min Temperature 56 °F 47 °F 34 °F (1942)
Degree Days  
Heating Degree Days 0 4  
Month to date heating degree days 105 224  
Since 1 July heating degree days 2515 2845  
Cooling Degree Days 9 2  
Month to date cooling degree days 57 16  
Year to date cooling degree days 64 18  
Growing Degree Days 23 (Base 50)    
Moisture  
Dew Point 25 °F    
Average Humidity 21    
Maximum Humidity 36    
Minimum Humidity 5    
Precipitation  
Precipitation 0.00 in 0.01 in 0.66 in (1951)
Month to date precipitation T 0.46  
Year to date precipitation 0.71 4.97  
Since 1 July precipitation 1.00 7.95  
Snow  
Snow 0.00 in - 0.00 in (1973)
Month to date snowfall 0.0  
Since 1 July snowfall 0.0  
Snow Depth 0.00 in    
Sea Level Pressure  
Sea Level Pressure 29.78 in    
Wind  
Wind Speed 11 mph (SW)    
Max Wind Speed 24 mph    
Max Gust Speed 30 mph    
Visibility 10 miles    
Events      
T = Trace of Precipitation, MM = Missing Value Source: NWS Daily Summary

Daily Weather History Graph

Daily Weather History Graph

Search for Another Location

Airport:

Trip Planner

Search our weather history database for the weather conditions in past years. The results will help you decide how hot, cold, wet, or windy it might be!

Date:

Astronomy

Apr. 29, 2013 Rise Set
Actual Time 6:03 AM PDT 7:35 PM PDT
Civil Twilight 5:37 AM PDT 8:02 PM PDT
Nautical Twilight 5:04 AM PDT 8:34 PM PDT
Astronomical Twilight 4:31 AM PDT 9:08 PM PDT
Moon No Moon Rise 9:33 AM PDT (4/29)
Length of Visible Light 14h 25m
Length of Day
13h 31m
Waning Gibbous, 79% of the Moon is Illuminated
Apr 29
Waning Gibbous
May 2
Last Quarter
May 9
New
May 17
First Quarter
May 24
Full

Hourly Weather History & Observations

Time (PDT) Temp. Dew Point Humidity Pressure Visibility Wind Dir Wind Speed Gust Speed Precip Events Conditions
12:53 AM 71.1 °F 19.0 °F 14% 29.85 in 10.0 mi West 10.4 mph - N/A   Clear
1:53 AM 66.9 °F 18.0 °F 15% 29.84 in 10.0 mi South 4.6 mph - N/A   Clear
2:53 AM 60.1 °F 27.0 °F 28% 29.83 in 10.0 mi South 6.9 mph - N/A   Clear
3:53 AM 60.1 °F 27.0 °F 28% 29.82 in 10.0 mi South 9.2 mph - N/A   Clear
4:53 AM 57.9 °F 26.1 °F 30% 29.82 in 10.0 mi SSW 5.8 mph - N/A   Clear
5:53 AM 55.9 °F 26.1 °F 32% 29.83 in 10.0 mi SSW 9.2 mph - N/A   Clear
6:53 AM 59.0 °F 24.1 °F 26% 29.84 in 10.0 mi SSW 9.2 mph - N/A   Clear
7:53 AM 68.0 °F 21.9 °F 17% 29.84 in 10.0 mi Calm Calm - N/A   Clear
8:53 AM 75.9 °F 21.0 °F 13% 29.83 in 10.0 mi Calm Calm - N/A   Clear
9:53 AM 81.0 °F 21.9 °F 11% 29.83 in 10.0 mi WNW 5.8 mph - N/A   Clear
10:53 AM 84.0 °F 19.0 °F 9% 29.82 in 10.0 mi Variable 5.8 mph - N/A   Clear
11:53 AM 87.1 °F 14.0 °F 7% 29.80 in 10.0 mi Calm Calm - N/A   Clear
12:53 PM 89.1 °F 18.0 °F 7% 29.77 in 10.0 mi West 12.7 mph 16.1 mph N/A   Clear
1:53 PM 91.9 °F 10.0 °F 5% 29.75 in 10.0 mi SW 18.4 mph 24.2 mph N/A   Clear
2:53 PM 91.0 °F 16.0 °F 6% 29.75 in 10.0 mi WSW 13.8 mph - N/A   Clear
3:53 PM 90.0 °F 19.0 °F 7% 29.72 in 10.0 mi SW 19.6 mph - N/A   Clear
4:53 PM 88.0 °F 26.1 °F 11% 29.71 in 10.0 mi WSW 20.7 mph 27.6 mph N/A   Clear
5:53 PM 84.9 °F 28.9 °F 13% 29.72 in 10.0 mi WSW 16.1 mph - N/A   Clear
6:53 PM 80.1 °F 36.0 °F 20% 29.73 in 10.0 mi WSW 19.6 mph - N/A   Clear
7:53 PM 75.9 °F 33.1 °F 21% 29.73 in 10.0 mi WSW 20.7 mph 26.5 mph N/A   Clear
8:53 PM 73.9 °F 36.0 °F 25% 29.74 in 10.0 mi SW 17.3 mph - N/A   Clear
9:53 PM 73.0 °F 36.0 °F 26% 29.74 in 10.0 mi SW 12.7 mph - N/A   Clear
10:53 PM 71.1 °F 41.0 °F 34% 29.74 in 10.0 mi SW 13.8 mph - N/A   Clear
11:53 PM 70.0 °F 41.0 °F 35% 29.73 in 10.0 mi SW 13.8 mph - N/A   Clear